Regional Weather Roundup
Issued by NWS Portland, ME

Home | Current Version | Previous Version | Text Only | Print | Product List | Glossary On
Versions: 1 2 3 4 5 6 7 8 9 10 11 12 13 14 15 16 17 18 19 20 21 22 23 24 25 26 27 28 29 30 31 32 33 34 35 36 37 38 39 40 41 42 43 44 45 46 47 48 49 50
000
ASUS41 KGYX 280910
RWRGYX
WEATHER ROUNDUP FOR MAINE AND NEW HAMPSHIRE
NATIONAL WEATHER SERVICE GRAY ME
500 AM EDT THU JUL 28 2016

MEZ002-005-006-010-012-015-018-020-021-024-026-027-029-281000-
MAINE

CITY           SKY/WX    TMP DP  RH WIND       PRES   REMARKS
PORTLAND       PTCLDY    64  61  90 CALM      29.88S
SANFORD          N/A     59  58  96 CALM      29.89R
BAR HARBOR     CLOUDY    65  64  97 CALM      29.89R
WISCASSET      CLEAR     63  60  90 CALM      29.89S
ROCKLAND       PTCLDY    62  62 100 CALM      29.88S
FRYEBURG       NOT AVBL
LEWISTONAUBURN CLOUDY    61  60  97 CALM      29.88S
AUGUSTA        PTCLDY    66  62  87 S5        29.88S
WATERVILLE     CLOUDY    64  61  90 CALM      29.85F
BANGOR         MOCLDY    70  63  78 S6        29.88R
GREENVILLE       N/A     67  56  67 CALM      29.89R
MILLINOCKET    CLOUDY    66  63  90 CALM      29.88R
HOULTON        CLOUDY    68  65  90 S5        29.83S
PRESQUE ISLE   MOCLDY    61  60  97 CALM      29.85S
FRENCHVILLE    CLOUDY    62  59  90 N3        29.85R
CARIBOU        CLOUDY    63  61  93 W3        29.84S
$$

NHZ002-005-008-009-011-012-014-281000-
NEW HAMPSHIRE

CITY           SKY/WX    TMP DP  RH WIND       PRES   REMARKS
PORTSMOUTH     PTCLDY    66  63  91 W2        29.87R
ROCHESTER      CLEAR     63  60  90 NW6       29.88S
NASHUA         CLEAR     65  62  90 CALM      29.90R
MANCHESTER     PTCLDY    67  61  81 CALM      29.88R
CONCORD        CLEAR     62  60  93 CALM      29.90R
LACONIA        CLEAR     66  64  93 CALM      29.90S
PLYMOUTH       FAIR      58  56  96 CALM      29.91S FOG
BERLIN         CLOUDY    58  55  90 CALM      29.92S
WHITEFIELD     MOCLDY    59  55  87 CALM      29.92R
JAFFREY        CLEAR     60  57  89 S5        29.94S
KEENE          CLEAR     59  58  96 CALM      29.92
LEBANON        MOCLDY    63  60  90 CALM      29.90S
MT WASHINGTON  MOCLDY    54  50  87 W22         N/A
$$

VTZ005-007-008-281000-
VERMONT

CITY           SKY/WX    TMP DP  RH WIND       PRES   REMARKS
ST JOHNSBURY     N/A     63  60  90 MISG      29.90R
MONTPELIER     MOCLDY    62  60  93 CALM      29.95R
BURLINGTON     FAIR      69  62  78 E5        29.87S
$$

MAZ007-012-024-CTZ003-RIZ002-NYZ038-NYZ072-281000-
SOUTHERN NEW ENGLAND AND NY

CITY           SKY/WX    TMP DP  RH WIND       PRES   REMARKS
BOSTON         PTCLDY    76  63  64 W5        29.88S
WORCESTER      CLEAR     71  59  65 W8        29.93S
NANTUCKET      PTCLDY    70  68  93 SW7       29.91S
PROVIDENCE     CLEAR     69  65  86 S5        29.90S
HARTFORD       PTCLDY    66  61  84 NW3       29.91R
ALBANY         PTCLDY    66  61  84 CALM      29.90S
NEW YORK CITY  CLEAR     80  73  79 CALM      29.90R
$$

ANZ081-ANZ082-ANZ150-NHZ014-MEZ023>029-281000-
COASTAL MARINE OBSERVATIONS

STATION/POSITION TIME  TEMP    WIND        PRES    WAVE
                       AIR SEA DIR/SP/G            HT/PER
                 (UTC) (F)     (DEG/KT/KT) (MB)    (FT/S)
MOUNT DESERT ROC 0900   65     190/ 10/ 10 1012.5R
MATINICUS ROCK   0800   65     160/  5/  5 1011.8R
ISLE OF SHOALS   0800   72     230/  3/  4 1011.3F
JEFFREYS LEDGE   0808      69                N/A     2/ 3
CASHES LEDGE BUO 0850   71 71  170/  6/  8 1012.0R   2/ 6
GEORGES BANK BUO 0850   63 65              1013.2F   2/ 7
$$

.............KEY..............
   WCI - WIND CHILL
   TC  - TEMPERATURE IN CELSIUS
   VSB - VISIBILITY IN MILES
   HX  - HEAT INDEX
   FAIR- INDICATES FEW OR NO CLOUDS BELOW 12,000 FT, WITH NO
         SIGNIFICANT WEATHER AND/OR OBSTRUCTIONS TO VISIBILITY.





USA.gov is the U.S. government's official web portal to all federal, state and local government web resources and services.